Retour au catalogue

ASTROCAST-01

ActifRadio amateurSSO
NORAD 43798·PAYLOAD·🇨🇭 Switzerland

Lancé Dec 3, 2018 depuis Vandenberg Space Force Base

Loading…

Prochains Passages (prochaines 24 heures)

TLE

FraisSource: Space-Track

Époque: Sep 14, 2026, 11:02 UTC

1 43798U 18099AS  26257.45981675  .00037839  00000-0  54761-3 0  9991
2 43798  97.4307 339.1194 0003104 240.4320 119.6625 15.55807852428286

Suivez ASTROCAST-01 en temps réel avec AllMySat

Download on the App Store